Wind_Speed
5 5 5 6 5 2 1 4 12 14 14 14 11 13 18 14 15 12 12 11 8 9 11 11 11 10 11 12 16 18 18 19 20 21 15 23 25 23 18 17 16 15 15
4 5 4 5 6 7 9 11 12 12 14 13 12 12 13 13 13 10 10 11 12 14 14 16 17 14 14 15 23 24 26 24 24 25 23 20 27 27 23 21 20 19 18
7 6 5 6 8 8 9 10 11 12 12 13 13 13 13 13 11 10 10 9 11 13 14 19 20 19 19 13 11 13 14 18 25 30 30 23 23 30 27 25 25 24 22
7 8 7 8 9 10 10 10 11 12 12 13 15 15 13 11 12 10 10 11 12 14 14 18 20 18 18 13 16 18 16 20 23 25 32 25 21 21 28 28 28 29 26
10 9 9 10 9 10 10 9 10 12 13 16 17 16 17 18 17 15 13 11 10 12 13 12 7 12 11 14 18 18 17 18 22 17 26 23 20 23 27 30 29 31 29
10 10 10 8 8 9 8 9 10 12 15 17 19 18 17 19 19 15 15 16 15 14 14 12 14 14 16 14 17 18 18 18 18 18 8 17 22 24 33 31 30 29 31
9 9 9 8 8 10 11 12 12 13 14 17 19 19 18 17 18 18 17 16 15 14 13 12 11 12 13 13 13 14 16 17 16 16 13 16 24 30 25 27 23 25 30
9 11 11 11 11 12 12 13 12 13 15 16 19 19 18 17 18 19 19 19 18 17 16 16 14 15 15 16 17 18 17 17 16 16 15 15 17 17 17 20 24 25 30
13 15 16 16 16 15 13 13 14 15 16 17 18 19 18 18 19 19 19 19 18 17 17 18 19 20 21 21 22 22 22 22 20 20 20 20 19 21 23 25 29 32 31
14 17 18 18 19 17 17 15 17 17 16 16 16 16 16 17 18 18 18 19 19 19 20 20 21 22 24 24 26 25 26 25 25 25 25 25 25 26 28 29 31 32 33
15 16 18 20 21 20 20 20 19 18 17 17 17 17 17 17 17 17 18 19 20 20 21 22 23 24 25 26 27 29 30 30 30 30 30 30 31 32 32 34 36 38 39
17 16 18 19 21 21 21 22 21 19 19 19 20 19 19 19 19 18 18 19 20 21 21 22 23 24 25 27 28 28 28 28 28 30 32 33 34 35 36 39 39 39 40
13 15 16 16 18 19 20 21 20 19 19 20 21 20 19 18 18 18 19 20 21 21 22 23 23 23 22 22 23 24 25 25 28 31 31 33 35 37 40 41 42 43 45
13 16 16 16 16 17 17 17 17 17 18 19 19 18 17 17 18 19 20 21 22 23 24 24 23 23 24 26 25 24 25 27 26 26 31 32 34 35 38 41 44 47 49
15 16 16 16 17 16 14 13 13 14 16 16 16 16 17 18 19 20 22 24 25 24 22 23 25 25 25 26 27 27 28 31 34 35 37 40 43 44 45 48 48 49 51
17 16 15 16 17 16 14 13 14 13 13 14 14 16 17 19 21 23 24 23 22 22 22 22 24 25 25 25 28 30 33 36 38 42 46 49 50 51 53 54 55 56 56
19 17 17 17 16 16 15 14 14 14 15 16 18 19 21 23 25 25 24 23 25 26 26 28 29 29 30 32 35 38 41 44 47 48 49 51 53 52 53 55 58 59 60
20 18 17 17 15 14 15 15 15 16 18 19 20 22 24 26 27 26 26 27 28 30 30 30 31 34 36 39 42 45 48 51 53 53 54 53 54 57 59 59 58 59 60
21 19 18 17 15 14 15 16 17 18 20 22 23 24 27 28 28 27 27 29 29 30 33 36 40 43 44 45 47 50 55 58 57 57 57 57 58 58 57 57 58 57 57
22 20 18 18 16 15 17 18 19 21 23 25 25 28 31 30 27 27 28 30 31 34 37 41 43 44 45 48 53 58 58 58 57 56 56 57 57 55 55 54 54 54 54
24 22 19 18 17 17 19 19 21 23 25 27 28 31 32 29 26 27 29 31 34 37 41 43 42 47 52 55 56 59 60 58 57 56 56 56 54 52 51 50 49 49 50
26 25 23 22 20 20 20 21 22 24 27 30 31 33 28 24 24 27 29 33 36 39 39 43 49 53 55 58 61 60 58 58 57 55 54 52 50 48 47 46 45 46 49
27 25 23 24 21 20 22 24 25 27 29 31 34 28 22 24 27 30 32 34 37 40 44 48 52 56 57 56 57 57 59 57 54 50 48 46 45 45 43 41 43 46 45
31 27 25 23 21 21 23 24 25 28 30 33 25 21 25 27 29 31 33 38 42 45 46 52 54 53 53 56 57 56 55 52 47 44 43 41 42 40 38 40 43 42 41
34 29 25 23 20 21 22 24 27 28 32 25 22 26 29 30 30 35 39 42 44 47 52 51 50 52 54 53 54 53 50 45 39 39 40 41 38 37 37 39 40 39 39
34 28 25 24 22 23 25 27 26 29 25 21 26 29 29 32 36 40 43 44 46 49 46 48 51 51 51 51 49 48 45 40 38 39 39 38 37 36 37 38 37 37 38
Wind_Direction
203 217 233 239 209 223 51 293 311 316 312 311 316 334 342 340 311 294 296 278 271 265 278 277 276 281 277 281 285 281 280 277 283 284 292 258 250 248 248 258 262 267 275
194 200 190 202 214 258 280 285 297 308 308 312 320 329 332 344 335 317 296 284 270 274 278 278 279 281 277 286 296 284 286 276 271 276 277 276 253 243 244 246 253 259 266
203 208 213 226 249 270 289 295 300 308 312 316 319 324 327 335 330 326 325 303 268 269 282 282 283 274 287 294 333 332 332 315 269 265 271 276 273 238 237 243 249 251 256
227 224 236 253 267 276 283 287 297 306 306 312 316 316 321 322 327 336 326 320 309 304 299 308 260 259 263 270 309 316 312 320 334 276 262 271 266 254 239 248 250 258 258
233 241 252 255 261 273 278 282 291 302 305 310 310 305 291 295 303 312 318 322 317 309 305 298 290 289 280 310 307 310 318 317 310 326 253 256 268 253 246 247 255 259 263
248 252 251 255 272 291 303 309 306 312 309 308 306 301 294 291 297 299 296 298 307 310 308 306 292 292 291 293 301 308 315 319 325 341 265 252 269 269 252 246 251 261 267
261 256 263 283 300 303 302 304 300 298 300 302 300 296 293 286 285 288 289 293 301 304 306 307 305 303 302 307 308 312 317 324 329 321 315 266 269 264 260 249 251 267 275
285 288 296 299 299 299 295 292 289 292 295 297 299 298 288 283 282 281 280 282 287 291 293 296 298 299 303 308 310 314 315 312 314 310 306 300 292 290 287 287 278 274 281
302 303 302 303 304 300 289 285 288 290 295 297 295 297 301 297 293 289 287 286 285 285 285 288 292 294 295 296 298 300 303 305 306 306 303 301 294 288 283 278 275 276 276
291 294 297 297 295 292 290 286 280 282 287 289 294 298 300 297 295 295 295 294 292 289 289 290 288 288 290 291 292 294 295 296 296 294 295 293 290 288 286 284 282 281 281
286 289 293 292 288 283 281 276 272 273 277 278 281 286 289 291 292 292 292 291 289 287 287 286 286 288 289 289 289 290 291 292 293 293 292 290 289 288 285 282 280 281 281
282 286 285 281 279 278 276 275 273 271 274 277 278 279 282 286 288 288 288 288 286 284 283 283 283 283 284 285 287 289 292 295 297 298 299 300 299 297 293 292 291 287 283
277 281 279 282 283 281 276 274 273 275 277 278 280 283 287 288 290 291 291 291 291 291 290 290 290 290 289 289 290 291 292 292 297 298 297 297 296 296 295 296 294 293 292
275 276 283 288 291 286 279 274 274 277 278 277 279 283 289 293 295 295 295 294 293 292 291 290 290 291 292 291 290 287 285 292 292 294 299 299 296 293 295 295 292 291 291
280 280 284 288 291 287 280 278 280 281 280 281 284 289 294 297 298 296 295 295 295 294 296 298 300 301 298 295 296 295 296 296 298 296 295 294 295 294 292 291 294 289 286
278 282 291 293 287 275 273 281 284 286 287 288 292 294 294 293 294 294 293 290 289 291 293 295 297 299 295 291 295 294 293 292 291 292 293 294 294 294 293 290 288 288 286
276 280 287 289 283 270 270 279 281 281 286 292 294 295 295 296 298 298 294 291 294 293 293 294 296 296 290 289 296 296 297 297 297 298 297 297 296 295 294 293 290 288 286
263 270 278 280 276 271 270 279 287 290 290 290 292 296 296 297 296 293 290 290 294 295 296 298 298 298 298 298 298 298 302 303 300 298 297 297 296 297 296 293 289 286 284
256 261 268 271 270 274 276 281 287 289 288 292 293 294 298 296 293 290 286 290 294 295 296 299 301 301 300 299 299 301 303 303 302 301 299 299 299 297 294 292 291 290 292
258 255 259 264 270 278 281 282 285 286 288 291 291 297 301 296 293 287 288 293 295 296 297 300 302 302 303 304 304 304 305 305 304 302 302 301 298 295 294 294 295 297 298
251 250 257 263 269 276 278 281 285 288 291 295 294 301 302 295 292 291 293 294 297 300 300 302 307 310 307 305 305 306 307 306 304 303 302 299 297 297 298 300 300 299 299
246 249 254 261 268 273 277 280 285 289 294 297 296 300 295 291 293 297 299 300 301 303 307 311 309 308 308 309 309 308 307 307 305 303 300 300 300 301 301 301 300 300 302
245 253 254 261 268 270 271 275 285 290 295 298 299 295 290 294 298 301 304 305 308 310 309 309 309 311 310 311 311 309 308 306 304 301 301 302 302 302 302 302 303 304 301
246 253 253 261 263 264 271 280 287 292 297 301 294 290 294 298 303 306 308 309 309 308 309 311 312 312 313 312 311 311 312 309 305 305 304 305 305 304 304 305 307 305 304
243 249 256 253 258 274 280 287 293 298 300 291 292 301 306 306 308 310 309 309 309 311 312 314 314 313 314 315 316 319 318 313 308 307 307 307 307 307 306 308 308 308 308
248 251 261 259 265 276 283 291 296 300 290 294 304 306 306 308 310 309 308 310 313 315 315 315 315 315 316 319 322 320 320 318 316 314 314 314 313 309 306 308 311 311 309
Height
5914 5916 5916 5917 5918 5917 5916 5917 5916 5915 5915 5914 5913 5911 5910 5908 5908 5908 5910 5912 5913 5912 5910 5909 5909 5909 5908 5907 5907 5907 5907 5907 5906 5904 5905 5907 5910 5912 5914 5915 5916 5916 5917
5913 5914 5915 5916 5916 5916 5916 5916 5915 5914 5913 5912 5911 5910 5910 5908 5906 5905 5905 5907 5908 5908 5907 5906 5906 5906 5905 5904 5903 5901 5902 5902 5901 5899 5899 5900 5902 5905 5908 5910 5912 5912 5912
5912 5912 5913 5914 5914 5915 5914 5914 5913 5912 5911 5910 5909 5908 5907 5906 5905 5905 5904 5904 5904 5904 5903 5904 5903 5902 5901 5901 5898 5897 5895 5892 5893 5893 5892 5893 5893 5897 5901 5904 5906 5908 5908
5912 5912 5912 5912 5912 5912 5913 5912 5911 5910 5909 5909 5907 5906 5906 5904 5904 5904 5903 5903 5901 5900 5899 5898 5896 5898 5897 5897 5895 5894 5891 5890 5887 5885 5885 5887 5888 5890 5893 5896 5899 5900 5902
5910 5910 5910 5910 5910 5910 5910 5909 5908 5908 5907 5907 5906 5905 5904 5903 5903 5902 5901 5900 5899 5899 5897 5896 5894 5894 5892 5892 5891 5890 5888 5885 5883 5877 5875 5880 5882 5883 5886 5888 5891 5893 5895
5907 5907 5908 5907 5907 5906 5906 5906 5906 5904 5904 5903 5903 5903 5901 5900 5900 5901 5900 5898 5897 5896 5893 5893 5892 5890 5890 5888 5888 5886 5884 5882 5879 5875 5872 5876 5877 5877 5879 5881 5883 5885 5887
5904 5904 5904 5903 5903 5903 5902 5902 5902 5901 5901 5900 5900 5900 5898 5897 5897 5896 5896 5894 5892 5891 5889 5888 5887 5887 5886 5885 5884 5882 5880 5878 5876 5874 5873 5872 5872 5873 5873 5872 5874 5878 5880
5901 5901 5901 5901 5901 5900 5899 5899 5898 5898 5898 5898 5897 5896 5895 5894 5893 5893 5892 5891 5889 5888 5886 5885 5884 5883 5882 5881 5879 5877 5876 5875 5874 5873 5871 5870 5869 5868 5867 5866 5867 5869 5871
5897 5897 5898 5897 5896 5896 5896 5895 5895 5895 5895 5895 5894 5893 5890 5889 5888 5887 5887 5886 5885 5884 5882 5881 5879 5878 5877 5876 5875 5873 5872 5871 5869 5869 5868 5866 5865 5864 5863 5863 5863 5862 5862
5894 5894 5893 5893 5893 5893 5893 5891 5892 5892 5892 5892 5891 5889 5888 5887 5885 5883 5882 5880 5879 5879 5877 5877 5875 5874 5872 5871 5870 5868 5867 5866 5865 5864 5862 5861 5860 5858 5858 5857 5855 5853 5852
5890 5891 5890 5890 5890 5890 5889 5888 5889 5888 5888 5888 5887 5887 5885 5883 5881 5880 5878 5877 5876 5875 5874 5873 5871 5870 5868 5867 5865 5863 5861 5859 5858 5856 5854 5853 5851 5850 5848 5848 5846 5844 5842
5888 5888 5887 5887 5886 5885 5885 5885 5884 5884 5884 5883 5883 5882 5880 5878 5876 5875 5873 5872 5871 5870 5869 5868 5866 5865 5863 5861 5859 5857 5855 5852 5850 5848 5845 5843 5840 5839 5838 5835 5833 5831 5829
5885 5885 5884 5883 5882 5881 5881 5880 5880 5879 5878 5878 5877 5875 5874 5872 5871 5870 5868 5867 5865 5863 5862 5860 5858 5857 5855 5853 5851 5849 5847 5845 5842 5840 5837 5834 5831 5829 5825 5823 5820 5818 5815
5882 5882 5881 5879 5877 5876 5876 5875 5875 5874 5874 5873 5871 5869 5867 5866 5865 5863 5861 5860 5858 5857 5855 5853 5851 5849 5847 5845 5843 5841 5839 5837 5835 5832 5830 5826 5822 5819 5815 5812 5808 5805 5800
5878 5877 5876 5874 5873 5872 5871 5871 5870 5870 5869 5867 5865 5863 5862 5860 5859 5858 5856 5854 5852 5850 5848 5847 5845 5843 5841 5838 5835 5833 5830 5828 5825 5822 5819 5815 5811 5807 5803 5799 5795 5791 5787
5873 5872 5870 5869 5869 5868 5868 5867 5866 5865 5863 5862 5860 5858 5857 5855 5854 5852 5850 5848 5846 5845 5843 5841 5839 5836 5833 5830 5828 5825 5822 5818 5814 5810 5806 5801 5796 5791 5786 5782 5778 5774 5769
5867 5866 5865 5865 5865 5864 5863 5862 5860 5859 5858 5856 5855 5853 5851 5849 5848 5845 5843 5842 5840 5838 5835 5833 5830 5826 5823 5820 5817 5813 5808 5804 5799 5794 5788 5783 5777 5772 5766 5761 5756 5752 5748
5861 5861 5860 5860 5860 5859 5858 5856 5855 5853 5852 5850 5849 5847 5845 5843 5841 5839 5837 5835 5833 5830 5827 5824 5821 5818 5814 5810 5805 5800 5795 5789 5783 5776 5770 5763 5757 5751 5746 5740 5735 5730 5726
5856 5855 5855 5855 5854 5853 5852 5851 5849 5847 5846 5845 5843 5841 5839 5836 5833 5831 5830 5827 5825 5822 5819 5816 5812 5807 5802 5796 5791 5785 5778 5771 5765 5757 5751 5744 5738 5732 5725 5719 5714 5709 5704
5851 5850 5850 5849 5848 5847 5846 5845 5843 5842 5841 5839 5837 5835 5831 5828 5826 5824 5822 5820 5817 5813 5810 5805 5800 5794 5788 5782 5776 5769 5762 5754 5747 5740 5733 5725 5718 5712 5706 5701 5695 5688 5682
5844 5844 5844 5843 5842 5841 5840 5838 5837 5836 5835 5833 5830 5827 5823 5820 5818 5816 5814 5811 5807 5803 5798 5793 5786 5781 5774 5768 5760 5752 5744 5736 5729 5722 5714 5707 5700 5695 5689 5682 5676 5670 5665
5838 5838 5838 5837 5835 5834 5834 5832 5831 5830 5828 5826 5824 5820 5816 5813 5810 5808 5805 5801 5796 5792 5786 5780 5774 5767 5760 5752 5744 5736 5727 5719 5711 5703 5697 5690 5684 5678 5672 5666 5661 5655 5650
5831 5832 5832 5832 5831 5829 5828 5827 5825 5823 5821 5819 5815 5811 5809 5805 5802 5799 5795 5791 5786 5780 5774 5768 5761 5754 5746 5737 5728 5720 5712 5702 5695 5688 5682 5676 5670 5664 5658 5652 5647 5641 5635
5825 5826 5825 5825 5824 5823 5821 5819 5817 5815 5812 5810 5806 5804 5801 5798 5794 5790 5785 5781 5775 5769 5763 5755 5747 5740 5732 5723 5715 5705 5697 5688 5680 5674 5669 5663 5657 5651 5645 5640 5633 5627 5621
5818 5819 5820 5818 5818 5817 5815 5812 5810 5808 5806 5803 5801 5799 5796 5791 5786 5781 5776 5770 5764 5757 5751 5743 5735 5727 5719 5710 5700 5692 5683 5676 5669 5663 5657 5651 5645 5639 5634 5628 5622 5616 5610
5814 5814 5815 5814 5813 5811 5808 5805 5803 5800 5799 5798 5795 5792 5787 5783 5778 5772 5766 5760 5753 5746 5739 5731 5723 5714 5706 5698 5689 5680 5673 5667 5660 5654 5647 5640 5635 5629 5623 5617 5611 5605 5600